SCP
5 3 3 3 4 4 2 2 1 1 1 1 1 1 1 0 0 0 0 0 0 0
3 3 3 3 4 2 1 1 1 1 1 1 1 1 0 0 0 0 0 0 0 0
3 4 2 3 2 1 1 1 1 1 1 0 1 0 0 0 0 0 0 0 0 0
3 2 2 3 2 1 1 1 1 0 0 0 0 0 0 0 0 0 0 0 0 0
2 1 2 1 1 1 1 1 0 0 0 0 0 0 0 0 0 0 0 0 0 0
1 1 1 1 0 0 0 0 0 0 0 0 0 0 0 0 0 0 0 0 0 0
1 1 1 0 0 0 0 0 0 0 0 0 0 0 0 0 0 0 0 0 0 0
1 0 0 0 0 0 0 0 0 0 0 0 0 0 0 0 0 0 0 0 0 0
0 0 0 0 0 0 0 0 0 0 0 0 0 0 0 0 0 0 0 0 0 0
0 0 0 0 0 0 0 0 0 0 0 0 0 0 0 0 0 0 0 0 0 0
0 0 0 0 0 0 0 0 0 0 0 0 0 0 0 0 0 0 0 0 0 0
0 0 0 0 0 0 0 0 0 0 0 0 0 0 0 0 0 0 0 0 0 0
0 0 0 0 0 0 0 0 0 0 0 0 0 0 0 0 0 0 0 0 0 0
0 0 -0 0 0 0 0 0 0 0 0 0 0 0 0 0 0 0 0 0 0 0
Wind_Speed_500mb
79 68 56 64 67 64 55 46 37 40 37 36 36 39 36 34 29 29 28 28 29 28
81 69 64 62 62 62 46 36 41 41 42 40 37 37 33 27 27 25 26 24 25 27
71 60 64 63 66 57 43 35 40 45 46 40 35 35 30 28 23 20 21 22 21 22
56 53 60 60 56 52 48 42 43 44 43 39 37 34 28 23 20 15 16 16 18 21
46 62 62 59 58 59 52 45 41 40 38 31 27 25 22 19 20 16 11 13 15 15
62 62 65 67 63 55 48 44 34 33 33 34 26 24 16 25 16 25 18 15 11 15
67 65 71 65 59 52 45 39 37 34 32 31 26 23 25 23 20 21 20 14 15 11
58 55 56 51 46 42 39 37 31 35 33 28 27 27 25 22 25 25 21 19 14 7
53 54 51 43 38 35 36 34 35 34 31 34 34 30 26 28 26 22 19 19 13 7
53 51 44 42 39 39 37 37 36 32 33 32 27 26 28 27 19 21 21 18 10 5
46 46 45 43 42 39 38 33 34 36 34 31 28 24 25 25 19 24 22 16 12 11
50 46 44 42 45 41 40 39 37 37 31 30 26 25 21 21 22 24 22 22 17 16
51 42 38 36 38 38 38 37 36 34 28 27 30 27 23 21 23 24 21 23 19 20
47 41 39 37 36 30 34 34 35 36 32 27 26 26 25 20 20 22 25 20 17 18
Wind_Direction_500mb
247 237 234 226 229 229 228 229 219 205 197 205 206 207 212 223 230 235 235 238 231 226
235 231 230 220 225 223 226 219 207 194 196 202 206 215 230 236 236 234 236 226 227 234
221 226 227 218 216 215 216 201 189 191 194 200 202 216 227 228 225 219 213 221 227 228
224 221 207 204 203 207 202 188 182 188 192 198 212 224 222 217 195 195 212 212 229 229
204 190 192 193 196 196 189 181 179 188 196 201 212 216 215 207 189 195 224 240 238 241
188 190 188 188 185 178 175 174 179 177 186 198 212 211 220 193 210 198 241 257 250 256
181 183 180 181 173 172 174 175 170 182 196 204 199 195 184 185 206 215 229 259 265 240
175 179 177 175 178 182 180 171 179 191 193 198 187 192 190 195 214 222 232 242 232 249
171 173 173 173 164 162 160 173 177 177 179 179 180 190 187 206 214 224 234 221 214 290
170 170 170 161 159 170 167 174 183 190 190 181 188 202 201 211 222 224 208 210 193 143
173 164 162 160 168 169 173 183 192 184 185 190 192 193 205 220 214 187 197 187 176 161
165 165 164 173 174 172 180 184 185 189 193 194 199 192 191 191 191 188 185 179 189 169
168 168 170 164 166 184 186 191 192 195 201 191 188 186 187 182 181 177 182 187 190 177
166 164 168 166 180 193 193 189 187 186 184 180 185 184 183 181 181 187 188 200 205 197
Wind_Speed_850mb
79 68 56 64 67 64 55 46 37 40 37 36 36 39 36 34 29 29 28 28 29 28
81 69 64 62 62 62 46 36 41 41 42 40 37 37 33 27 27 25 26 24 25 27
71 60 64 63 66 57 43 35 40 45 46 40 35 35 30 28 23 20 21 22 21 22
56 53 60 60 56 52 48 42 43 44 43 39 37 34 28 23 20 15 16 16 18 21
46 62 62 59 58 59 52 45 41 40 38 31 27 25 22 19 20 16 11 13 15 15
62 62 65 67 63 55 48 44 34 33 33 34 26 24 16 25 16 25 18 15 11 15
67 65 71 65 59 52 45 39 37 34 32 31 26 23 25 23 20 21 20 14 15 11
58 55 56 51 46 42 39 37 31 35 33 28 27 27 25 22 25 25 21 19 14 7
53 54 51 43 38 35 36 34 35 34 31 34 34 30 26 28 26 22 19 19 13 7
53 51 44 42 39 39 37 37 36 32 33 32 27 26 28 27 19 21 21 18 10 5
46 46 45 43 42 39 38 33 34 36 34 31 28 24 25 25 19 24 22 16 12 11
50 46 44 42 45 41 40 39 37 37 31 30 26 25 21 21 22 24 22 22 17 16
51 42 38 36 38 38 38 37 36 34 28 27 30 27 23 21 23 24 21 23 19 20
47 41 39 37 36 30 34 34 35 36 32 27 26 26 25 20 20 22 25 20 17 18
Wind_Direction_850mb
247 237 234 226 229 229 228 229 219 205 197 205 206 207 212 223 230 235 235 238 231 226
235 231 230 220 225 223 226 219 207 194 196 202 206 215 230 236 236 234 236 226 227 234
221 226 227 218 216 215 216 201 189 191 194 200 202 216 227 228 225 219 213 221 227 228
224 221 207 204 203 207 202 188 182 188 192 198 212 224 222 217 195 195 212 212 229 229
204 190 192 193 196 196 189 181 179 188 196 201 212 216 215 207 189 195 224 240 238 241
188 190 188 188 185 178 175 174 179 177 186 198 212 211 220 193 210 198 241 257 250 256
181 183 180 181 173 172 174 175 170 182 196 204 199 195 184 185 206 215 229 259 265 240
175 179 177 175 178 182 180 171 179 191 193 198 187 192 190 195 214 222 232 242 232 249
171 173 173 173 164 162 160 173 177 177 179 179 180 190 187 206 214 224 234 221 214 290
170 170 170 161 159 170 167 174 183 190 190 181 188 202 201 211 222 224 208 210 193 143
173 164 162 160 168 169 173 183 192 184 185 190 192 193 205 220 214 187 197 187 176 161
165 165 164 173 174 172 180 184 185 189 193 194 199 192 191 191 191 188 185 179 189 169
168 168 170 164 166 184 186 191 192 195 201 191 188 186 187 182 181 177 182 187 190 177
166 164 168 166 180 193 193 189 187 186 184 180 185 184 183 181 181 187 188 200 205 197